DLH6HH LJLJ-EDDF

Flight info

Callsign DLH6HH
Flight time 0h 58m
Altitude 36000
Route GIMIX1Z GIMIX DCT RASTA DCT SIMBA DCT AKINI T161 DEBHI DEBHI1B
Aircraft A319/M-SDE3FGHIRWY/LB1

Departure

Time 2026-05-06 12:21
Airport Ljubljana Jože Pučnik Airport (LJLJ)

Arrival

Time 2026-05-06 13:19
Airport Frankfurt Main Airport (EDDF)
Time Latitude Longitude Altitude Speed Heading
2026-05-06 11:59 46.22958 14.45569 1260 ft 0 kts 36°
2026-05-06 12:08 46.22950 14.45561 1268 ft 4 kts 41°
2026-05-06 12:08 46.22933 14.45533 1259 ft 4 kts 63°
2026-05-06 12:08 46.22924 14.45496 1263 ft 4 kts 86°
2026-05-06 12:08 46.22928 14.45461 1259 ft 2 kts 127°
2026-05-06 12:09 46.22943 14.45433 1266 ft 4 kts 127°
2026-05-06 12:09 46.22959 14.45401 1263 ft 4 kts 126°
2026-05-06 12:09 46.22972 14.45374 1264 ft 1 kts 126°
2026-05-06 12:09 46.22973 14.45373 1264 ft 1 kts 126°
2026-05-06 12:11 46.22967 14.45386 1269 ft 4 kts 124°
2026-05-06 12:11 46.22916 14.45394 1261 ft 15 kts 206°
2026-05-06 12:12 46.22831 14.45338 1247 ft 14 kts 154°
2026-05-06 12:12 46.22762 14.45463 1245 ft 19 kts 126°
2026-05-06 12:12 46.22671 14.45636 1246 ft 24 kts 127°
2026-05-06 12:12 46.22572 14.45832 1242 ft 25 kts 126°
2026-05-06 12:13 46.22472 14.46031 1249 ft 23 kts 126°
2026-05-06 12:13 46.22373 14.46220 1247 ft 25 kts 127°
2026-05-06 12:13 46.22268 14.46424 1250 ft 26 kts 126°
2026-05-06 12:13 46.22160 14.46633 1247 ft 26 kts 127°
2026-05-06 12:14 46.22055 14.46840 1239 ft 25 kts 126°
2026-05-06 12:14 46.21954 14.47036 1243 ft 24 kts 127°
2026-05-06 12:14 46.21859 14.47223 1244 ft 23 kts 124°
2026-05-06 12:14 46.21765 14.47411 1248 ft 23 kts 128°
2026-05-06 12:15 46.21682 14.47568 1233 ft 15 kts 127°
2026-05-06 12:15 46.21622 14.47603 1244 ft 9 kts 215°
2026-05-06 12:15 46.21597 14.47575 1240 ft 0 kts 216°
2026-05-06 12:19 46.21589 14.47567 1237 ft 3 kts 216°
2026-05-06 12:19 46.21570 14.47548 1243 ft 4 kts 216°
2026-05-06 12:19 46.21547 14.47521 1246 ft 6 kts 220°
2026-05-06 12:20 46.21520 14.47460 1243 ft 9 kts 264°
2026-05-06 12:20 46.21543 14.47380 1245 ft 8 kts 305°
2026-05-06 12:20 46.21583 14.47301 1244 ft 23 kts 306°
2026-05-06 12:20 46.21847 14.46783 1250 ft 102 kts 306°
2026-05-06 12:21 46.22400 14.45701 1286 ft 158 kts 304°
2026-05-06 12:21 46.23035 14.44448 2026 ft 150 kts 305°
2026-05-06 12:21 46.23614 14.43215 2752 ft 151 kts 293°
2026-05-06 12:21 46.23781 14.41643 3166 ft 168 kts 268°
2026-05-06 12:22 46.23862 14.39884 3699 ft 184 kts 268°
2026-05-06 12:22 46.23976 14.37946 4235 ft 204 kts 270°
2026-05-06 12:22 46.24110 14.35840 4943 ft 215 kts 270°
2026-05-06 12:22 46.24261 14.33697 5974 ft 215 kts 269°
2026-05-06 12:23 46.24415 14.31539 6847 ft 218 kts 269°
2026-05-06 12:23 46.24568 14.29313 7643 ft 224 kts 270°
2026-05-06 12:23 46.24723 14.27081 8631 ft 223 kts 270°
2026-05-06 12:23 46.24875 14.24843 9566 ft 225 kts 269°
2026-05-06 12:24 46.25027 14.22576 10527 ft 229 kts 269°
2026-05-06 12:24 46.25180 14.20267 11362 ft 233 kts 269°
2026-05-06 12:24 46.25337 14.17919 12236 ft 235 kts 269°
2026-05-06 12:24 46.25494 14.15558 13123 ft 238 kts 269°
2026-05-06 12:25 46.25652 14.13167 13880 ft 241 kts 270°
2026-05-06 12:25 46.25842 14.10723 14377 ft 253 kts 274°
2026-05-06 12:25 46.26215 14.08112 14654 ft 277 kts 277°
2026-05-06 12:25 46.26634 14.05299 15028 ft 294 kts 277°
2026-05-06 12:26 46.27070 14.02378 15701 ft 299 kts 277°
2026-05-06 12:26 46.27508 13.99412 16427 ft 304 kts 277°
2026-05-06 12:26 46.28305 13.96531 17112 ft 319 kts 298°
2026-05-06 12:26 46.29857 13.94144 17816 ft 332 kts 313°
2026-05-06 12:27 46.31659 13.92000 18530 ft 338 kts 317°
2026-05-06 12:27 46.33593 13.89972 18920 ft 354 kts 320°
2026-05-06 12:27 46.35689 13.87854 19132 ft 379 kts 320°
2026-05-06 12:27 46.37902 13.85669 19557 ft 391 kts 321°
2026-05-06 12:28 46.40169 13.83454 20176 ft 396 kts 320°
2026-05-06 12:28 46.42463 13.81207 20799 ft 400 kts 320°
2026-05-06 12:28 46.44771 13.78930 21443 ft 403 kts 320°
2026-05-06 12:28 46.47091 13.76623 22086 ft 406 kts 320°
2026-05-06 12:29 46.49423 13.74292 22723 ft 408 kts 320°
2026-05-06 12:29 46.51885 13.72166 23331 ft 417 kts 328°
2026-05-06 12:29 46.54623 13.70636 23832 ft 427 kts 339°
2026-05-06 12:29 46.57536 13.69629 24285 ft 432 kts 342°
2026-05-06 12:30 46.60469 13.68656 24774 ft 434 kts 342°
2026-05-06 12:30 46.63423 13.67671 25254 ft 437 kts 341°
2026-05-06 12:30 46.66396 13.66674 25699 ft 439 kts 341°
2026-05-06 12:30 46.69380 13.65667 26128 ft 442 kts 341°
2026-05-06 12:31 46.72384 13.64648 26556 ft 444 kts 341°
2026-05-06 12:31 46.75407 13.63621 27000 ft 447 kts 341°
2026-05-06 12:31 46.78451 13.62585 27438 ft 451 kts 341°
2026-05-06 12:31 46.81519 13.61536 27925 ft 454 kts 340°
2026-05-06 12:32 46.84601 13.60480 28424 ft 457 kts 340°
2026-05-06 12:32 46.87700 13.59424 28852 ft 459 kts 340°
2026-05-06 12:32 46.90822 13.58362 29237 ft 463 kts 340°
2026-05-06 12:32 46.93972 13.57293 29661 ft 465 kts 340°
2026-05-06 12:33 46.97132 13.56220 30061 ft 467 kts 340°
2026-05-06 12:33 47.00304 13.55139 30420 ft 468 kts 340°
2026-05-06 12:33 47.03480 13.54053 30723 ft 470 kts 340°
2026-05-06 12:33 47.06664 13.52961 31003 ft 471 kts 340°
2026-05-06 12:34 47.09860 13.51864 31316 ft 473 kts 340°
2026-05-06 12:34 47.13076 13.50758 31681 ft 473 kts 339°
2026-05-06 12:34 47.16273 13.49657 32106 ft 472 kts 339°
2026-05-06 12:34 47.19472 13.48557 32555 ft 472 kts 339°
2026-05-06 12:35 47.22667 13.47459 32989 ft 471 kts 339°
2026-05-06 12:35 47.25854 13.46360 33430 ft 470 kts 339°
2026-05-06 12:35 47.29041 13.45258 33810 ft 471 kts 339°
2026-05-06 12:35 47.32236 13.44151 34047 ft 474 kts 339°
2026-05-06 12:36 47.35453 13.43033 34335 ft 475 kts 339°
2026-05-06 12:36 47.38656 13.41924 34796 ft 472 kts 339°
2026-05-06 12:36 47.41847 13.40818 35242 ft 470 kts 339°
2026-05-06 12:36 47.45027 13.39712 35630 ft 469 kts 339°
2026-05-06 12:37 47.48202 13.38605 35777 ft 469 kts 340°
2026-05-06 12:37 47.51307 13.37283 35803 ft 461 kts 334°
2026-05-06 12:37 47.57382 13.34292 35782 ft 460 kts 334°
2026-05-06 12:38 47.63448 13.31292 35773 ft 460 kts 334°
2026-05-06 12:38 47.69489 13.28316 35765 ft 461 kts 334°
2026-05-06 12:39 47.75575 13.25318 35765 ft 461 kts 334°
2026-05-06 12:39 47.81665 13.22300 35762 ft 461 kts 334°
2026-05-06 12:40 47.87767 13.19262 35759 ft 462 kts 334°
2026-05-06 12:40 47.93871 13.16212 35758 ft 463 kts 334°
2026-05-06 12:41 47.99989 13.13161 35762 ft 463 kts 334°
2026-05-06 12:41 48.06107 13.10098 35767 ft 464 kts 334°
2026-05-06 12:42 48.12224 13.07022 35775 ft 464 kts 334°
2026-05-06 12:42 48.18303 13.03938 35784 ft 462 kts 332°
2026-05-06 12:43 48.23831 12.99354 35789 ft 444 kts 314°
2026-05-06 12:43 48.28128 12.92950 35788 ft 432 kts 304°
2026-05-06 12:44 48.32085 12.86239 35790 ft 432 kts 304°
2026-05-06 12:44 48.36077 12.79465 35777 ft 432 kts 304°
2026-05-06 12:45 48.40057 12.72680 35784 ft 433 kts 304°
2026-05-06 12:46 48.46033 12.62474 35787 ft 433 kts 304°
2026-05-06 12:46 48.50011 12.55646 35788 ft 433 kts 304°
2026-05-06 12:47 48.53984 12.48805 35791 ft 434 kts 304°
2026-05-06 12:47 48.57961 12.41945 35787 ft 434 kts 304°
2026-05-06 12:48 48.61937 12.35080 35787 ft 434 kts 304°
2026-05-06 12:48 48.65839 12.28310 35782 ft 435 kts 304°
2026-05-06 12:49 48.69817 12.21406 35784 ft 436 kts 304°
2026-05-06 12:49 48.73126 12.15653 35786 ft 436 kts 304°
2026-05-06 12:50 48.76403 12.08109 35787 ft 424 kts 290°
2026-05-06 12:50 48.79022 12.00097 35788 ft 425 kts 290°
2026-05-06 12:51 48.81640 11.92049 35794 ft 425 kts 290°
2026-05-06 12:51 48.84251 11.84004 35787 ft 425 kts 290°
2026-05-06 12:52 48.86870 11.75932 35777 ft 425 kts 290°
2026-05-06 12:52 48.89472 11.67855 35772 ft 426 kts 290°
2026-05-06 12:52 48.90776 11.63810 35505 ft 428 kts 289°
2026-05-06 12:53 48.92087 11.59744 35136 ft 427 kts 289°
2026-05-06 12:53 48.93391 11.55699 34780 ft 426 kts 289°
2026-05-06 12:53 48.94689 11.51657 34419 ft 425 kts 289°
2026-05-06 12:53 48.95980 11.47621 34065 ft 424 kts 289°
2026-05-06 12:54 48.97266 11.43585 33707 ft 423 kts 289°
2026-05-06 12:54 48.98548 11.39558 33300 ft 423 kts 289°
2026-05-06 12:54 48.99835 11.35517 32888 ft 425 kts 289°
2026-05-06 12:54 49.01107 11.31515 32508 ft 426 kts 289°
2026-05-06 12:55 49.02397 11.27458 32116 ft 424 kts 289°
2026-05-06 12:55 49.03682 11.23418 31729 ft 423 kts 289°
2026-05-06 12:55 49.04960 11.19396 31348 ft 421 kts 289°
2026-05-06 12:55 49.06229 11.15396 30980 ft 418 kts 289°
2026-05-06 12:56 49.07491 11.11398 30619 ft 417 kts 289°
2026-05-06 12:56 49.08742 11.07422 30250 ft 415 kts 289°
2026-05-06 12:56 49.09982 11.03464 29884 ft 413 kts 289°
2026-05-06 12:56 49.11217 10.99519 29466 ft 411 kts 289°
2026-05-06 12:57 49.12449 10.95591 29047 ft 409 kts 289°
2026-05-06 12:57 49.13676 10.91682 28631 ft 407 kts 289°
2026-05-06 12:57 49.14894 10.87790 28222 ft 406 kts 289°
2026-05-06 12:57 49.16108 10.83893 27803 ft 404 kts 289°
2026-05-06 12:58 49.17310 10.80025 27406 ft 403 kts 289°
2026-05-06 12:58 49.18507 10.76168 27019 ft 401 kts 290°
2026-05-06 12:58 49.19894 10.72546 26636 ft 406 kts 300°
2026-05-06 12:58 49.21748 10.69198 26242 ft 411 kts 309°
2026-05-06 12:59 49.23767 10.66042 25860 ft 409 kts 309°
2026-05-06 12:59 49.25754 10.62933 25486 ft 407 kts 309°
2026-05-06 12:59 49.27729 10.59832 25113 ft 405 kts 309°
2026-05-06 12:59 49.29657 10.56790 24756 ft 403 kts 310°
2026-05-06 13:00 49.31601 10.53716 24401 ft 401 kts 310°
2026-05-06 13:00 49.33536 10.50653 24044 ft 399 kts 310°
2026-05-06 13:00 49.35459 10.47593 23710 ft 396 kts 309°
2026-05-06 13:00 49.37144 10.44307 23335 ft 390 kts 301°
2026-05-06 13:01 49.38693 10.40902 22927 ft 388 kts 301°
2026-05-06 13:01 49.40236 10.37518 22516 ft 386 kts 302°
2026-05-06 13:01 49.41768 10.34161 22113 ft 383 kts 302°
2026-05-06 13:01 49.43308 10.30792 21708 ft 386 kts 302°
2026-05-06 13:02 49.44856 10.27403 21318 ft 386 kts 302°
2026-05-06 13:02 49.46394 10.24025 20932 ft 384 kts 302°
2026-05-06 13:02 49.47918 10.20672 20543 ft 382 kts 302°
2026-05-06 13:02 49.49433 10.17333 20190 ft 380 kts 302°
2026-05-06 13:03 49.50938 10.14010 19839 ft 378 kts 302°
2026-05-06 13:03 49.52435 10.10702 19509 ft 375 kts 302°
2026-05-06 13:03 49.53921 10.07408 19176 ft 373 kts 301°
2026-05-06 13:03 49.55412 10.04141 18839 ft 372 kts 303°
2026-05-06 13:04 49.56977 10.00979 18501 ft 371 kts 305°
2026-05-06 13:04 49.58599 9.97888 18173 ft 370 kts 306°
2026-05-06 13:04 49.60236 9.94841 17802 ft 368 kts 306°
2026-05-06 13:04 49.61869 9.91813 17394 ft 366 kts 307°
2026-05-06 13:05 49.63482 9.88803 17000 ft 363 kts 306°
2026-05-06 13:05 49.65078 9.85795 16598 ft 361 kts 306°
2026-05-06 13:05 49.66634 9.82837 16217 ft 358 kts 306°
2026-05-06 13:05 49.68195 9.79854 15833 ft 356 kts 306°
2026-05-06 13:06 49.69744 9.76881 15459 ft 354 kts 306°
2026-05-06 13:06 49.71278 9.73924 15075 ft 352 kts 306°
2026-05-06 13:06 49.72799 9.70981 14710 ft 350 kts 306°
2026-05-06 13:06 49.74318 9.68047 14338 ft 348 kts 306°
2026-05-06 13:07 49.75828 9.65132 13976 ft 347 kts 306°
2026-05-06 13:07 49.77328 9.62227 13615 ft 344 kts 306°
2026-05-06 13:07 49.78821 9.59344 13219 ft 342 kts 306°
2026-05-06 13:07 49.80306 9.56480 12824 ft 339 kts 306°
2026-05-06 13:08 49.81776 9.53644 12424 ft 337 kts 306°
2026-05-06 13:08 49.83234 9.50824 12036 ft 334 kts 306°
2026-05-06 13:08 49.84674 9.48026 11653 ft 331 kts 306°
2026-05-06 13:08 49.86103 9.45246 11275 ft 329 kts 306°
2026-05-06 13:09 49.87527 9.42473 10898 ft 327 kts 306°
2026-05-06 13:09 49.88937 9.39727 10529 ft 325 kts 306°
2026-05-06 13:09 49.90339 9.36995 10160 ft 323 kts 306°
2026-05-06 13:09 49.91732 9.34281 9799 ft 320 kts 306°
2026-05-06 13:10 49.93117 9.31580 9419 ft 319 kts 306°
2026-05-06 13:10 49.94492 9.28898 9019 ft 317 kts 306°
2026-05-06 13:10 49.95860 9.26224 8616 ft 315 kts 306°
2026-05-06 13:10 49.97215 9.23570 8239 ft 313 kts 306°
2026-05-06 13:11 49.98524 9.21004 7866 ft 311 kts 306°
2026-05-06 13:11 49.99860 9.18386 7491 ft 309 kts 306°
2026-05-06 13:11 50.01189 9.15778 7114 ft 307 kts 306°
2026-05-06 13:11 50.02514 9.13175 6742 ft 306 kts 306°
2026-05-06 13:12 50.03834 9.10577 6380 ft 305 kts 306°
2026-05-06 13:12 50.05139 9.08003 6015 ft 300 kts 306°
2026-05-06 13:12 50.06419 9.05481 5663 ft 294 kts 306°
2026-05-06 13:12 50.07656 9.03038 5303 ft 287 kts 305°
2026-05-06 13:13 50.08811 9.00543 4939 ft 279 kts 294°
2026-05-06 13:13 50.09473 8.97758 4628 ft 271 kts 284°
2026-05-06 13:13 50.10010 8.95016 4371 ft 258 kts 284°
2026-05-06 13:13 50.10520 8.92365 4120 ft 247 kts 284°
2026-05-06 13:14 50.10932 8.89894 3996 ft 231 kts 273°
2026-05-06 13:14 50.10809 8.87487 3998 ft 212 kts 252°
2026-05-06 13:14 50.10334 8.85412 3896 ft 201 kts 248°
2026-05-06 13:14 50.09856 8.83377 3682 ft 195 kts 249°
2026-05-06 13:15 50.09397 8.81424 3483 ft 189 kts 248°
2026-05-06 13:15 50.08952 8.79536 3205 ft 188 kts 248°
2026-05-06 13:15 50.08504 8.77640 2954 ft 184 kts 248°
2026-05-06 13:15 50.08067 8.75785 2715 ft 180 kts 249°
2026-05-06 13:16 50.07642 8.73987 2464 ft 171 kts 248°
2026-05-06 13:16 50.07245 8.72311 2258 ft 160 kts 249°
2026-05-06 13:16 50.06870 8.70724 2046 ft 151 kts 248°
2026-05-06 13:16 50.06528 8.69280 1856 ft 133 kts 248°
2026-05-06 13:17 50.06221 8.67984 1676 ft 123 kts 248°
2026-05-06 13:17 50.05925 8.66720 1503 ft 127 kts 247°
2026-05-06 13:17 50.05610 8.65433 1342 ft 127 kts 247°
2026-05-06 13:17 50.05308 8.64147 1159 ft 128 kts 248°
2026-05-06 13:18 50.05003 8.62864 961 ft 126 kts 246°
2026-05-06 13:18 50.04690 8.61570 777 ft 130 kts 247°
2026-05-06 13:18 50.04382 8.60232 614 ft 132 kts 245°
2026-05-06 13:18 50.04072 8.58931 434 ft 125 kts 247°
2026-05-06 13:19 50.03782 8.57718 362 ft 109 kts 249°
2026-05-06 13:19 50.03568 8.56825 353 ft 70 kts 249°
2026-05-06 13:19 50.03449 8.56296 351 ft 33 kts 258°
2026-05-06 13:19 50.03448 8.55955 348 ft 32 kts 279°
2026-05-06 13:20 50.03471 8.55748 344 ft 9 kts 279°
2026-05-06 13:20 50.03508 8.55698 345 ft 9 kts
2026-05-06 13:20 50.03560 8.55767 347 ft 12 kts 63°
2026-05-06 13:20 50.03602 8.55933 354 ft 21 kts 69°
2026-05-06 13:21 50.03663 8.56189 353 ft 27 kts 69°
2026-05-06 13:21 50.03730 8.56469 357 ft 28 kts 70°
2026-05-06 13:21 50.03797 8.56752 356 ft 28 kts 69°
2026-05-06 13:21 50.03865 8.57033 356 ft 27 kts 69°
2026-05-06 13:22 50.03929 8.57300 368 ft 26 kts 69°
2026-05-06 13:22 50.03995 8.57577 365 ft 28 kts 70°
2026-05-06 13:22 50.04064 8.57865 366 ft 28 kts 69°
2026-05-06 13:22 50.04133 8.58153 370 ft 28 kts 70°
2026-05-06 13:23 50.04203 8.58440 370 ft 28 kts 69°
2026-05-06 13:23 50.04271 8.58727 371 ft 28 kts 70°
2026-05-06 13:23 50.04337 8.59001 376 ft 26 kts 69°
2026-05-06 13:23 50.04403 8.59275 376 ft 28 kts 69°
2026-05-06 13:24 50.04450 8.59450 376 ft 10 kts 49°
2026-05-06 13:24 50.04525 8.59470 374 ft 12 kts 358°
2026-05-06 13:24 50.04556 8.59468 374 ft 0 kts 356°
2026-05-06 13:25 50.04584 8.59465 373 ft 9 kts 356°
2026-05-06 13:25 50.04668 8.59452 372 ft 14 kts 351°
2026-05-06 13:25 50.04751 8.59413 372 ft 6 kts 340°
2026-05-06 13:26 50.04774 8.59400 372 ft 0 kts 339°
2026-05-06 13:28 50.04775 8.59400 372 ft 0 kts 339°
2026-05-06 13:28 50.04796 8.59387 372 ft 8 kts 339°
2026-05-06 13:29 50.04876 8.59362 368 ft 15 kts
2026-05-06 13:29 50.04992 8.59337 367 ft 19 kts 342°
2026-05-06 13:29 50.05080 8.59233 362 ft 17 kts 277°
2026-05-06 13:29 50.05059 8.59129 363 ft 8 kts 240°
2026-05-06 13:30 50.05017 8.59129 365 ft 6 kts 160°
2026-05-06 13:30 50.04985 8.59147 365 ft 4 kts 159°
2026-05-06 13:30 50.04978 8.59152 364 ft 0 kts 160°
2026-05-06 13:30 50.04977 8.59152 364 ft 0 kts 160°